H1 CPF 2 NER 2021 3 22 9 081 01 glonass138 H2 1805301 9138 43508 2021 3 22 0 0 0 2021 3 25 23 45 0 900 1 1 0 0 0 1 H9 10 0 59295 0.00000 0 14092678.382 786653.612 21266300.155 10 0 59295 900.00000 0 12110144.544 2599903.384 22316194.476 10 0 59295 1800.00000 0 10197231.632 4629891.170 22933467.391 10 0 59295 2700.00000 0 8408452.956 6833200.254 23106096.440 10 0 59295 3600.00000 0 6790131.875 9157151.234 22830658.396 10 0 59295 4500.00000 0 5378618.138 11541785.417 22112400.855 10 0 59295 5400.00000 0 4198934.773 13922165.425 20965148.533 10 0 59295 6300.00000 0 3263911.478 16230899.070 19411045.300 10 0 59295 7200.00000 0 2573840.334 18400782.741 17480136.057 10 0 59295 8100.00000 0 2116667.989 20367455.303 15209795.429 10 0 59295 9000.00000 0 1868716.196 22071952.507 12644013.102 10 0 59295 9900.00000 0 1795900.495 23463055.424 9832548.666 10 0 59295 10800.00000 0 1855395.709 24499334.564 6829971.406 10 0 59295 11700.00000 0 1997677.966 25150803.566 3694603.102 10 0 59295 12600.00000 0 2168856.709 25400112.332 487384.196 10 0 59295 13500.00000 0 2313197.509 25243228.710 -2729314.454 10 0 59295 14400.00000 0 2375728.096 24689579.235 -5892910.670 10 0 59295 15300.00000 0 2304816.104 23761642.369 -8941836.290 10 0 59295 16200.00000 0 2054608.036 22494010.948 -11816743.943 10 0 59295 17100.00000 0 1587224.691 20931963.105 -14461670.817 10 0 59295 18000.00000 0 874618.615 19129601.950 -16825135.682 10 0 59295 18900.00000 0 -99986.435 17147642.550 -18861147.110 10 0 59295 19800.00000 0 -1341136.220 15050939.625 -20530102.700 10 0 59295 20700.00000 0 -2840708.570 12905860.272 -21799561.497 10 0 59295 21600.00000 0 -4578017.243 10777612.249 -22644874.613 10 0 59295 22500.00000 0 -6520453.573 8727639.910 -23049662.025 10 0 59295 23400.00000 0 -8624639.616 6811196.757 -23006126.661 10 0 59295 24300.00000 0 -10838044.994 5075195.678 -22515200.210 10 0 59295 25200.00000 0 -13101000.186 3556425.961 -21586518.360 10 0 59295 26100.00000 0 -15349022.336 2280210.566 -20238226.461 10 0 59295 27000.00000 0 -17515356.663 1259558.352 -18496619.845 10 0 59295 27900.00000 0 -19533627.607 494845.084 -16395626.121 10 0 59295 28800.00000 0 -21340489.138 -25965.158 -13976139.829 10 0 59295 29700.00000 0 -22878163.842 -326569.323 -11285222.606 10 0 59295 30600.00000 0 -24096765.051 -441078.807 -8375184.531 10 0 59295 31500.00000 0 -24956305.268 -412330.977 -5302564.812 10 0 59295 32400.00000 0 -25428307.451 -289831.414 -2127031.730 10 0 59295 33300.00000 0 -25496952.282 -127414.802 1089776.577 10 0 59295 34200.00000 0 -25159714.036 19275.913 4285447.743 10 0 59295 35100.00000 0 -24427459.112 95385.002 7398003.914 10 0 59295 36000.00000 0 -23324003.735 49404.062 10367100.155 10 0 59295 36900.00000 0 -21885149.906 -164411.547 13135189.354 10 0 59295 37800.00000 0 -20157240.353 -583871.986 15648631.369 10 0 59295 38700.00000 0 -18195293.003 -1237019.581 17858725.494 10 0 59295 39600.00000 0 -16060792.882 -2140710.152 19722646.813 10 0 59295 40500.00000 0 -13819233.185 -3299669.049 21204269.156 10 0 59295 41400.00000 0 -11537507.329 -4706062.150 22274859.569 10 0 59295 42300.00000 0 -9281259.824 -6339600.684 22913631.527 10 0 59295 43200.00000 0 -7112305.130 -8168176.740 23108146.860 10 0 59295 44100.00000 0 -5086220.759 -10149004.421 22854558.899 10 0 59295 45000.00000 0 -3250213.703 -12230220.665 22157692.167 10 0 59295 45900.00000 0 -1641347.954 -14352880.729 21030956.751 10 0 59295 46800.00000 0 -285206.059 -16453266.875 19496098.308 10 0 59295 47700.00000 0 804960.061 -18465415.434 17582787.648 10 0 59295 48600.00000 0 1628554.033 -20323758.053 15328056.712 10 0 59295 49500.00000 0 2197422.411 -21965767.662 12775590.652 10 0 59295 50400.00000 0 2535113.514 -23334498.828 9974888.713 10 0 59295 51300.00000 0 2675639.036 -24380916.124 6980309.262 10 0 59295 52200.00000 0 2661790.743 -25065912.420 3850016.849 10 0 59295 53100.00000 0 2543083.533 -25361931.536 644851.627 10 0 59295 54000.00000 0 2373412.328 -25254126.103 -2572856.804 10 0 59295 54900.00000 0 2208522.627 -24741000.892 -5740507.592 10 0 59295 55800.00000 0 2103402.832 -23834513.504 -8796454.268 10 0 59295 56700.00000 0 2109709.980 -22559627.437 -11681213.055 10 0 59295 57600.00000 0 2273339.276 -20953335.743 -14338629.323 10 0 59295 58500.00000 0 2632241.757 -19063196.107 -16716978.420 10 0 59295 59400.00000 0 3214583.773 -16945438.928 -18769978.712 10 0 59295 60300.00000 0 4037327.437 -14662727.995 -20457696.554 10 0 59295 61200.00000 0 5105293.070 -12281668.031 -21747325.248 10 0 59295 62100.00000 0 6410744.143 -9870163.801 -22613822.869 10 0 59295 63000.00000 0 7933513.001 -7494741.415 -23040396.778 10 0 59295 63900.00000 0 9641662.637 -5217943.847 -23018825.798 10 0 59295 64800.00000 0 11492657.200 -3095909.081 -22549614.308 10 0 59295 65700.00000 0 13434992.509 -1176231.298 -21641975.821 10 0 59295 66600.00000 0 15410218.427 503806.527 -20313646.852 10 0 59295 67500.00000 0 17355268.629 1918556.207 -18590535.170 10 0 59295 68400.00000 0 19205000.408 3054830.398 -16506209.593 10 0 59295 69300.00000 0 20894838.300 3912198.353 -14101241.576 10 0 59295 70200.00000 0 22363411.056 4502740.902 -11422411.589 10 0 59295 71100.00000 0 23555071.773 4850276.926 -8521795.892 10 0 59295 72000.00000 0 24422195.805 4989095.593 -5455751.684 10 0 59295 72900.00000 0 24927160.535 4962249.422 -2283820.556 10 0 59295 73800.00000 0 25043924.364 4819481.545 932428.350 10 0 59295 74700.00000 0 24759139.156 4614875.681 4130592.667 10 0 59295 75600.00000 0 24072749.926 4404328.901 7248645.433 10 0 59295 76500.00000 0 22998057.066 4242954.438 10226134.531 10 0 59295 77400.00000 0 21561238.823 4182524.450 13005349.739 10 0 59295 78300.00000 0 19800354.244 4269060.811 15532435.124 10 0 59295 79200.00000 0 17763868.262 4540675.496 17758425.724 10 0 59295 80100.00000 0 15508760.341 5025751.552 19640189.047 10 0 59295 81000.00000 0 13098295.112 5741541.270 21141253.950 10 0 59295 81900.00000 0 10599547.108 6693240.777 22232511.701 10 0 59295 82800.00000 0 8080781.739 7873580.412 22892776.361 10 0 59295 83700.00000 0 5608800.254 9262948.922 23109194.274 10 0 59295 84600.00000 0 3246357.769 10830047.484 22877495.102 10 0 59295 85500.00000 0 1049760.498 12533047.587 22202079.557 10 0 59296 0.00000 0 -933259.178 14321205.987 21095941.892 10 0 59296 900.00000 0 -2665302.355 16136871.081 19580427.762 10 0 59296 1800.00000 0 -4120625.949 17917798.007 17684831.766 10 0 59296 2700.00000 0 -5285972.138 19599677.440 15445840.611 10 0 59296 3600.00000 0 -6160872.146 21118773.108 12906832.089 10 0 59296 4500.00000 0 -6757410.691 22414558.011 10117042.064 10 0 59296 5400.00000 0 -7099461.784 23432239.004 7130614.815 10 0 59296 6300.00000 0 -7221428.041 24125063.353 4005554.451 10 0 59296 7200.00000 0 -7166536.909 24456309.542 802597.627 10 0 59296 8100.00000 0 -6984766.170 24400877.516 -2415970.451 10 0 59296 9000.00000 0 -6730487.082 23946410.228 -5587533.247 10 0 59296 9900.00000 0 -6459925.723 23093897.983 -8650368.769 10 0 59296 10800.00000 0 -6228551.111 21857739.035 -11544859.337 10 0 59296 11700.00000 0 -6088501.942 20265252.917 -14214660.684 10 0 59296 12600.00000 0 -6086162.167 18355666.363 -16607806.557 10 0 59296 13500.00000 0 -6259989.299 16178614.058 -18677726.574 10 0 59296 14400.00000 0 -6638688.468 13792216.971 -20384156.957 10 0 59296 15300.00000 0 -7239810.395 11260818.962 -21693926.040 10 0 59296 16200.00000 0 -8068833.276 8652476.519 -22581599.318 10 0 59296 17100.00000 0 -9118767.934 6036306.634 -23029971.687 10 0 59296 18000.00000 0 -10370303.298 3479803.681 -23030397.690 10 0 59296 18900.00000 0 -11792486.366 1046236.908 -22582953.888 10 0 59296 19800.00000 0 -13343908.314 -1207763.433 -21696430.740 10 0 59296 20700.00000 0 -14974346.966 -3234331.477 -20388154.665 10 0 59296 21600.00000 0 -16626796.778 -4996115.240 -18683644.242 10 0 59296 22500.00000 0 -18239801.225 -6467578.690 -16616107.530 10 0 59296 23400.00000 0 -19749989.725 -7635803.667 -14225790.645 10 0 59296 24300.00000 0 -21094712.742 -8500760.035 -11559190.428 10 0 59296 25200.00000 0 -22214664.590 -9075034.716 -8668146.705 10 0 59296 26100.00000 0 -23056383.912 -9383032.871 -5608831.985 10 0 59296 27000.00000 0 -23574527.064 -9459686.638 -2440658.434 10 0 59296 27900.00000 0 -23733819.107 -9348727.446 774876.520 10 0 59296 28800.00000 0 -23510600.724 -9100595.965 3975383.237 10 0 59296 29700.00000 0 -22893906.361 -8770078.974 7098788.341 10 0 59296 30600.00000 0 -21886028.556 -8413773.554 10084535.167 10 0 59296 31500.00000 0 -20502544.942 -8087486.028 12874752.922 10 0 59296 32400.00000 0 -18771806.854 -7843675.573 15415372.247 10 0 59296 33300.00000 0 -16733910.730 -7729050.235 17657166.062 10 0 59296 34200.00000 0 -14439195.011 -7782416.509 19556696.113 10 0 59296 35100.00000 0 -11946324.612 -8032872.802 21077147.720 10 0 59296 36000.00000 0 -9320041.919 -8498422.751 22189037.390 10 0 59296 36900.00000 0 -6628676.896 -9185066.735 22870780.329 10 0 59296 37800.00000 0 -3941518.506 -10086410.146 23109107.514 10 0 59296 38700.00000 0 -1326155.265 -11183805.621 22899324.633 10 0 59296 39600.00000 0 1154105.962 -12447024.267 22245407.906 10 0 59296 40500.00000 0 3442637.066 -13835429.137 21159934.661 10 0 59296 41400.00000 0 5491603.326 -15299603.257 19663849.369 10 0 59296 42300.00000 0 7263708.457 -16783365.518 17786068.734 10 0 59296 43200.00000 0 8733498.222 -18226091.327 15562932.398 10 0 59296 44100.00000 0 9888168.701 -19565241.862 13037508.675 10 0 59296 45000.00000 0 10727845.703 -20738996.454 10258767.716 10 0 59296 45900.00000 0 11265323.849 -21688877.844 7280637.154 10 0 59296 46800.00000 0 11525276.455 -22362259.704 4160957.949 10 0 59296 47700.00000 0 11542969.650 -22714650.209 960360.445 10 0 59296 48600.00000 0 11362535.293 -22711654.478 -2258917.387 10 0 59296 49500.00000 0 11034876.161 -22330531.867 -5434246.128 10 0 59296 50400.00000 0 10615292.664 -21561281.081 -8503830.975 10 0 59296 51300.00000 0 10160932.456 -20407205.972 -11407922.929 10 0 59296 52200.00000 0 9728171.975 -18884936.927 -14089990.498 10 0 59296 53100.00000 0 9370041.883 -17023905.937 -16497828.037 10 0 59296 54000.00000 0 9133806.528 -14865296.656 -18584578.387 10 0 59296 54900.00000 0 9058800.851 -12460513.021 -20309649.312 10 0 59296 55800.00000 0 9174617.026 -9869230.442 -21639505.518 10 0 59296 56700.00000 0 9499718.110 -7157111.021 -22548320.895 10 0 59296 57600.00000 0 10040537.620 -4393278.232 -23018478.448 10 0 59296 58500.00000 0 10791103.238 -1647656.484 -23040908.633 10 0 59296 59400.00000 0 11733200.556 1011713.724 -22615260.001 10 0 59296 60300.00000 0 12837069.924 3521273.648 -21749899.416 10 0 59296 61200.00000 0 14062606.912 5824349.490 -20461742.353 10 0 59296 62100.00000 0 15361015.770 7873261.860 -18775917.037 10 0 59296 63000.00000 0 16676846.187 9631054.855 -16725269.313 10 0 59296 63900.00000 0 17950327.562 11072774.055 -14349718.188 10 0 59296 64800.00000 0 19119902.556 12186241.836 -11695474.800 10 0 59296 65700.00000 0 20124853.319 12972299.446 -8814140.139 10 0 59296 66600.00000 0 20907909.903 13444507.544 -5761699.338 10 0 59296 67500.00000 0 21417731.165 13628319.691 -2597432.193 10 0 59296 68400.00000 0 21611153.888 13559765.249 617238.701 10 0 59296 69300.00000 0 21455115.572 13283698.615 3819939.629 10 0 59296 70200.00000 0 20928170.162 12851689.778 6948553.976 10 0 59296 71100.00000 0 20021533.081 12319646.033 9942423.590 10 0 59296 72000.00000 0 18739611.686 11745265.679 12743519.976 10 0 59296 72900.00000 0 17099998.807 11185431.319 15297562.971 10 0 59296 73800.00000 0 15132929.299 10693652.585 17555065.710 10 0 59296 74700.00000 0 12880221.940 10317665.782 19472286.200 10 0 59296 75600.00000 0 10393750.074 10097291.110 21012067.912 10 0 59296 76500.00000 0 7733503.795 10062637.251 22144553.922 10 0 59296 77400.00000 0 4965323.194 10232728.488 22847761.522 10 0 59296 78300.00000 0 2158395.519 10614611.996 23108006.836 10 0 59296 79200.00000 0 -617381.303 11202982.982 22920171.619 10 0 59296 80100.00000 0 -3294060.788 11980343.982 22287807.126 10 0 59296 81000.00000 0 -5808226.628 12917692.500 21223072.800 10 0 59296 81900.00000 0 -8103382.297 13975709.290 19746510.319 10 0 59296 82800.00000 0 -10132053.225 15106398.669 17886656.502 10 0 59296 83700.00000 0 -11857514.912 16255113.295 15679501.445 10 0 59296 84600.00000 0 -13255075.576 17362879.489 13167801.176 10 0 59296 85500.00000 0 -14312859.996 18368926.156 10400257.064 10 0 59297 0.00000 0 -15032061.993 19213311.390 7430576.984 10 0 59297 900.00000 0 -15426654.927 19839535.859 4316435.363 10 0 59297 1800.00000 0 -15522572.803 20197033.102 1118353.089 10 0 59297 2700.00000 0 -15356395.975 20243429.323 -2101482.234 10 0 59297 3600.00000 0 -14973598.073 19946477.742 -5280431.303 10 0 59297 4500.00000 0 -14426428.096 19285583.166 -8356629.332 10 0 59297 5400.00000 0 -13771518.303 18252851.495 -11270198.586 10 0 59297 6300.00000 0 -13067319.868 16853618.229 -13964422.657 10 0 59297 7200.00000 0 -12371475.851 15106432.432 -16386858.487 10 0 59297 8100.00000 0 -11738243.618 13042495.739 -18490363.764 10 0 59297 9000.00000 0 -11216076.600 10704579.092 -20234019.042 10 0 59297 9900.00000 0 -10845468.382 8145462.145 -21583926.297 10 0 59297 10800.00000 0 -10657150.647 5425960.282 -22513868.334 10 0 59297 11700.00000 0 -10670721.334 2612621.481 -23005816.465 10 0 59297 12600.00000 0 -10893760.846 -224810.925 -23050276.903 10 0 59297 13500.00000 0 -11321473.395 -3016064.061 -22646469.703 10 0 59297 14400.00000 0 -11936868.219 -5693019.192 -21802337.302 10 0 59297 15300.00000 0 -12711472.604 -8192301.990 -20534383.042 10 0 59297 16200.00000 0 -13606546.198 -10457672.345 -18867343.275 10 0 59297 17100.00000 0 -14574745.038 -12442115.204 -16833699.798 10 0 59297 18000.00000 0 -15562164.795 -14109546.512 -14473042.423 10 0 59297 18900.00000 0 -16510676.837 -15436064.566 -11831294.276 10 0 59297 19800.00000 0 -17360458.460 -16410696.202 -8959815.077 10 0 59297 20700.00000 0 -18052610.464 -17035608.266 -5914400.034 10 0 59297 21600.00000 0 -18531751.669 -17325777.357 -2754193.993 10 0 59297 22500.00000 0 -18748480.959 -17308133.395 459457.911 10 0 59297 23400.00000 0 -18661603.113 -17020214.562 3664200.522 10 0 59297 24300.00000 0 -18240024.649 -16508391.573 6797876.643 10 0 59297 25200.00000 0 -17464239.874 -15825737.056 9799729.266 10 0 59297 26100.00000 0 -16327344.555 -15029630.495 12611574.777 10 0 59297 27000.00000 0 -14835534.473 -14179199.996 15178924.679 10 0 59297 27900.00000 0 -13008067.532 -13332708.614 17452034.595 10 0 59297 28800.00000 0 -10876690.532 -12544995.008 19386860.816 10 0 59297 29700.00000 0 -8484553.720 -11865075.610 20945906.638 10 0 59297 30600.00000 0 -5884657.345 -11334008.518 22098943.003 10 0 59297 31500.00000 0 -3137893.707 -10983108.285 22823590.157 10 0 59297 32400.00000 0 -310764.636 -10832586.057 23105749.813 10 0 59297 33300.00000 0 2527132.401 -10890671.922 22939879.818 10 0 59297 34200.00000 0 5305746.734 -11153256.302 22329106.101 10 0 59297 35100.00000 0 7957237.433 -11604065.822 21285169.492 10 0 59297 36000.00000 0 10418547.634 -12215366.932 19828207.827 10 0 59297 36900.00000 0 12633784.426 -12949168.621 17986376.671 10 0 59297 37800.00000 0 14556306.266 -13758874.721 15795314.899 10 0 59297 38700.00000 0 16150431.597 -14591317.280 13297464.262 10 0 59297 39600.00000 0 17392697.631 -15389086.261 10541255.049 10 0 59297 40500.00000 0 18272616.795 -16093057.911 7580172.626 10 0 59297 41400.00000 0 18792899.140 -16645015.298 4471722.281 10 0 59297 42300.00000 0 18969131.245 -16990250.104 1276312.236 10 0 59297 43200.00000 0 18828925.160 -17080035.006 -1943923.459 10 0 59297 44100.00000 0 18410573.362 -16873861.059 -5126338.814 10 0 59297 45000.00000 0 17761266.803 -16341344.091 -8209002.151 10 0 59297 45900.00000 0 16934951.851 -15463718.007 -11131909.925 10 0 59297 46800.00000 0 15989917.408 -14234850.305 -13838163.474 10 0 59297 47700.00000 0 14986215.044 -12661735.430 -16275084.722 10 0 59297 48600.00000 0 13983022.094 -10764443.851 -18395248.262 10 0 59297 49500.00000 0 13036059.931 -8575527.805 -20157409.171 10 0 59297 50400.00000 0 12195177.131 -6138907.840 -21527308.046 10 0 59297 51300.00000 0 11502199.976 -3508286.187 -22478337.602 10 0 59297 52200.00000 0 10989141.070 -745152.812 -22992058.040 10 0 59297 53100.00000 0 10676841.482 2083532.765 -23058551.531 10 0 59297 54000.00000 0 10574103.190 4907887.535 -22676609.453 10 0 59297 54900.00000 0 10677347.760 7657773.196 -21853749.280 10 0 59297 55800.00000 0 10970814.873 10265475.693 -20606061.355 10 0 59297 56700.00000 0 11427291.474 12668285.191 -18957888.983 10 0 59297 57600.00000 0 12009340.044 14810869.826 -16941348.437 10 0 59297 58500.00000 0 12670973.423 16647345.264 -14595698.551 10 0 59297 59400.00000 0 13359704.923 18142954.991 -11966572.368 10 0 59297 60300.00000 0 14018886.729 19275292.583 -9105085.953 10 0 59297 61200.00000 0 14590237.489 20035016.299 -6066841.927 10 0 59297 62100.00000 0 15016452.136 20426027.744 -2910847.275 10 0 59297 63000.00000 0 15243783.580 20465108.671 301633.423 10 0 59297 63900.00000 0 15224487.213 20181032.705 3508266.757 10 0 59297 64800.00000 0 14919025.004 19613190.649 6646858.123 10 0 59297 65700.00000 0 14297936.227 18809788.311 9656554.753 10 0 59297 66600.00000 0 13343295.881 17825693.454 12479020.825 10 0 59297 67500.00000 0 12049699.262 16720022.925 15059562.192 10 0 59297 68400.00000 0 10424730.948 15553571.562 17348179.387 10 0 59297 69300.00000 0 8488897.979 14386190.758 19300529.096 10 0 59297 70200.00000 0 6275029.208 13274226.336 20878776.247 10 0 59297 71100.00000 0 3827164.817 12268122.612 22052321.091 10 0 59297 72000.00000 0 1198981.030 11410292.415 22798387.907 10 0 59297 72900.00000 0 -1548185.940 10733341.589 23102464.650 10 0 59297 73800.00000 0 -4347636.276 10258721.776 22958585.458 10 0 59297 74700.00000 0 -7129829.519 9995867.549 22369450.614 10 0 59297 75600.00000 0 -9825031.106 9941853.900 21346381.492 10 0 59297 76500.00000 0 -12365974.147 10081588.616 19909110.689 10 0 59297 77400.00000 0 -14690427.093 10388531.910 18085410.593 10 0 59297 78300.00000 0 -16743561.562 10825913.711 15910566.454 10 0 59297 79200.00000 0 -18480022.398 11348398.120 13426702.954 10 0 59297 80100.00000 0 -19865613.878 11904125.641 10681976.209 10 0 59297 81000.00000 0 -20878531.686 12437047.587 7729645.881 10 0 59297 81900.00000 0 -21510088.917 12889454.306 4627044.664 10 0 59297 82800.00000 0 -21764905.340 13204590.269 1434464.863 10 0 59297 83700.00000 0 -21660551.755 13329244.842 -1786016.249 10 0 59297 84600.00000 0 -21226664.275 13216208.157 -4971749.087 10 0 59297 85500.00000 0 -20503565.884 12826486.871 -8060738.004 10 0 59298 0.00000 0 -19540453.761 12131184.643 -10992856.296 10 0 59298 900.00000 0 -18393229.340 11112965.644 -13711025.631 10 0 59298 1800.00000 0 -17122063.341 9767039.098 -16162335.010 10 0 59298 2700.00000 0 -15788799.625 8101619.486 -18299077.726 10 0 59298 3600.00000 0 -14454307.685 6137843.993 -20079684.776 10 0 59298 4500.00000 0 -13175896.508 3909148.058 -21469536.352 10 0 59298 5400.00000 0 -12004899.016 1460125.000 -22441635.616 10 0 59298 6300.00000 0 -10984528.955 -1155083.414 -22977131.781 10 0 59298 7200.00000 0 -10148100.339 -3874798.547 -23065682.697 10 0 59298 8100.00000 0 -9517683.773 -6632135.019 -22705650.405 10 0 59298 9000.00000 0 -9103255.430 -9357552.624 -21904126.408 10 0 59298 9900.00000 0 -8902373.464 -11981523.928 -20676786.711 10 0 59298 10800.00000 0 -8900394.310 -14437206.956 -19047579.938 10 0 59298 11700.00000 0 -9071218.577 -16663012.229 -17048254.952 10 0 59298 12600.00000 0 -9378533.955 -18604957.818 -14717737.531 10 0 59298 13500.00000 0 -9777501.677 -20218715.203 -12101368.400 10 0 59298 14400.00000 0 -10216814.472 -21471261.574 -9250017.651 10 0 59298 15300.00000 0 -10641038.403 -22342070.728 -6219092.961 10 0 59298 16200.00000 0 -10993139.125 -22823794.084 -3067461.085 10 0 59298 17100.00000 0 -11217085.400 -22922404.660 143696.304 10 0 59298 18000.00000 0 -11260419.647 -22656799.317 3352069.908 10 0 59298 18900.00000 0 -11076686.748 -22057877.253 6495430.078 10 0 59298 19800.00000 0 -10627618.455 -21167134.532 9512830.647 10 0 59298 20700.00000 0 -9884981.201 -20034834.568 12345785.938 10 0 59298 21600.00000 0 -8832009.231 -18717831.951 14939398.438 10 0 59298 22500.00000 0 -7464362.478 -17277141.253 17243415.767 10 0 59298 23400.00000 0 -5790568.475 -15775352.721 19213196.998 10 0 59298 24300.00000 0 -3831929.028 -14274002.861 20810570.439 10 0 59298 25200.00000 0 -1621894.501 -12831009.362 22004567.102 10 0 59298 26100.00000 0 795069.378 -11498276.991 22772016.404 10 0 59298 27000.00000 0 3365076.525 -10319573.695 23097993.300 10 0 59298 27900.00000 0 6026812.658 -9328764.867 22976108.598 10 0 59298 28800.00000 0 8713843.515 -8548478.899 22408636.992 10 0 59298 29700.00000 0 11357145.012 -7989259.315 21406480.098 10 0 59298 30600.00000 0 13887751.928 -7649238.661 19988964.662 10 0 59298 31500.00000 0 16239416.335 -7514347.866 18183478.962 10 0 59298 32400.00000 0 18351166.381 -7559052.446 16024953.370 10 0 59298 33300.00000 0 20169659.556 -7747585.032 13555193.903 10 0 59298 34200.00000 0 21651232.605 -8035622.785 10822080.563 10 0 59298 35100.00000 0 22763562.469 -8372339.326 7878645.001 10 0 59298 36000.00000 0 23486868.459 -8702744.807 4782044.648 10 0 59298 36900.00000 0 23814604.774 -8970215.045 1592452.937 10 0 59298 37800.00000 0 23753613.835 -9119102.339 -1628112.820 10 0 59298 38700.00000 0 23323733.518 -9097316.563 -4817002.742 10 0 59298 39600.00000 0 22556874.601 -8858766.114 -7912160.507 10 0 59298 40500.00000 0 21495607.252 -8365553.936 -10853339.538 10 0 59298 41400.00000 0 20191316.376 -7589834.057 -13583284.562 10 0 59298 42300.00000 0 18702004.062 -6515248.534 -16048854.427 10 0 59298 43200.00000 0 17089832.341 -5137882.476 -18202063.498 10 0 59298 44100.00000 0 15418510.467 -3466695.405 -20001020.708 10 0 59298 45000.00000 0 13750637.327 -1523409.539 -21410747.520 10 0 59298 45900.00000 0 12145111.259 658141.363 -22403858.868 10 0 59298 46800.00000 0 10654716.315 3033176.156 -22961093.948 10 0 59298 47700.00000 0 9323986.291 5547595.272 -23071686.887 10 0 59298 48600.00000 0 8187435.707 8140006.892 -22733570.621 10 0 59298 49500.00000 0 7268231.155 10744066.149 -21953410.536 10 0 59298 50400.00000 0 6577357.708 13291029.998 -20746467.788 10 0 59298 51300.00000 0 6113314.032 15712421.660 -19136295.440 10 0 59298 52200.00000 0 5862347.536 17942693.967 -17154273.711 10 0 59298 53100.00000 0 5799218.164 19921780.983 -14838993.711 10 0 59298 54000.00000 0 5888457.225 21597432.158 -12235501.893 10 0 59298 54900.00000 0 6086066.850 22927232.311 -9394420.056 10 0 59298 55800.00000 0 6341587.298 23880223.875 -6370958.296 10 0 59298 56700.00000 0 6600443.850 24438064.627 -3223840.196 10 0 59298 57600.00000 0 6806473.457 24595673.473 -14161.363 10 0 59298 58500.00000 0 6904523.858 24361338.380 3195796.305 10 0 59298 59400.00000 0 6843015.003 23756283.012 6343771.454 10 0 59298 60300.00000 0 6576354.341 22813711.248 9368727.795 10 0 59298 61200.00000 0 6067103.896 21577370.490 12212032.928 10 0 59298 62100.00000 0 5287807.599 20099694.607 14818588.905 10 0 59298 63000.00000 0 4222401.638 18439604.653 17137893.102 10 0 59298 63900.00000 0 2867148.233 16660059.498 19125009.364 10 0 59298 64800.00000 0 1231052.960 14825458.557 20741431.441 10 0 59298 65700.00000 0 -664252.705 12999004.625 21955822.830 10 0 59298 66600.00000 0 -2785159.829 11240136.178 22744619.444 10 0 59298 67500.00000 0 -5087235.861 9602135.407 23092484.174 10 0 59298 68400.00000 0 -7516837.406 8130010.740 22992605.002 10 0 59298 69300.00000 0 -10013116.558 6858741.322 22446831.015 10 0 59298 70200.00000 0 -12510339.131 5811955.857 21465643.537 10 0 59298 71100.00000 0 -14940420.172 5001100.387 20067962.363 10 0 59298 72000.00000 0 -17235572.706 4425129.426 18280790.010 10 0 59298 72900.00000 0 -19330960.710 4070733.232 16138699.795 10 0 59298 73800.00000 0 -21167246.642 3913091.702 13683176.422 10 0 59298 74700.00000 0 -22692927.542 3917123.389 10961820.758 10 0 59298 75600.00000 0 -23866362.167 4039177.217 8027433.153 10 0 59298 76500.00000 0 -24657403.940 4229095.614 4936992.328 10 0 59298 77400.00000 0 -25048570.633 4432561.821 1750549.333 10 0 59298 78300.00000 0 -25035700.978 4593631.682 -1469941.960 10 0 59298 79200.00000 0 -24628069.862 4657342.031 -4661834.764 10 0 59298 80100.00000 0 -23847956.661 4572284.168 -7763015.332 10 0 59298 81000.00000 0 -22729684.504 4293032.105 -10713120.227 10 0 59298 81900.00000 0 -21318170.814 3782321.234 -13454720.175 10 0 59298 82800.00000 0 -19667050.318 3012883.651 -15934446.368 10 0 59298 83700.00000 0 -17836449.938 1968860.948 -18104036.406 10 0 59298 84600.00000 0 -15890509.664 646733.296 -19921278.892 10 0 59298 85500.00000 0 -13894754.200 -944275.620 -21350837.797 99